Location: Arcones
(41.1182°N, 3.7238°W)
Time: 08:59:55
(UTC+00:00)

IRIDIUM 106 - Pass Details

Date: 23 March 2026
Orbit: 776 x 780 km, 86.4° (Epoch: 19 April)

Event Time Altitude Azimuth Distance (km) Brightness Sun altitude
Exits shadow 20:16:23 32° 153° (SSE) 1,321 5.1 -20.3°
Maximum altitude 20:18:40 58° 88° (E) 907 4.3 -20.7°
Drops below altitude 10° 20:23:48 10° 11° (N) 2,339 6.9 -21.6°
Sets 20:26:11 0° 7° (N) 3,270 7.8 -22.1°
